星链-11472 (STARLINK-11472)

导读

STARLINK-11472是美国太空探索技术公司(SpaceX)星链G9-13组群中的低轨通信卫星,于2024年11月24日从美国范登堡空军基地发射升空。该卫星运行在平均高度约359公里的近地轨道,轨道倾角53.16°,平均飞行速度达27705.83km/h。作为星链全球卫星互联网星座的组成部分,它旨在为全球,尤其是通信基础设施薄弱区域提供高速互联网接入服务,星链计划末期会主动离轨坠入大气层销毁。

基本信息
目录编号:
62067
目录名称:
STARLINK-11472
国际标识:
2024-217L
轨道中心:
EARTH
卫星名称:
星链-11472
卫星全名:
星链-11472 (STARLINK-11472)
卫星状态:
在轨 (已飞行650 天)
发射日期:
2024-11-24 UTC
国别 :
美国 (US)
星等 :
--
轨道信息
数据来源 国际轨道数据
星历时间: 2026-09-05T14:27:25+0800
12小时前
查看轨道信息
半长轴: 6737.876km
偏心率: 0.0001229
轨道倾角: 53.157°
近地点辐角 44.709°
升交点赤经 266.349°
平近点角 315.402°
近地点: 358.91km
远地点: 360.568km
周期: 91.737分钟
每日圈数: 15.69706
详细信息
固有亮度:
5
最大亮度:
2.5
卫星平台:
Starlink V1.0
覆盖范围:
全球
运营商:
太空探索技术公司
运营商所在国:
美国
制造商(研发单位):
太空探索技术公司
制造商所在国:
美国
使用方式:
暂无
卫星简介
Starlink 计划是 SpaceX 推出的全球卫星互联网项目,通过发射低轨道卫星,为全球尤其是偏远地区提供高速、低延迟的互联网服务。自 2019 年起,Starlink 已部署数千颗卫星,旨在缩小全球数字鸿沟,推动互联网普及。该项目还为军事、航空等行业提供通信支持,带来广泛经济效益。
2D轨道图
3D轨道图
轨道高度分析图
轨道倾角分析图
轨道综合分析图
查看轨道综合分析图
交会数据列表
事件ID 空间交会对象 最接近时刻(TCA) 交会距离 交会风险概率(CRP) 交会风险指数(CRI) 操作
CDM_260907-012506-024606-206721
CATSAT (60246)
2026-09-07T
01:25:51+0000
2.613 km
极远距离
1.610133E-6 低风险 0.39
CDM_260906-185006-030906-206721
2026-09-06T
18:50:50+0000
2.823 km
极远距离
9.777199E-7 极低风险 0.35